DECAYED

STARLINK-4541, 53427 (Decayed)

Orbit data source: Space-Track

STARLINK-4541, 53427 was a payload satellite owned by SpaceX/Seattle (US) in LEO that was launched on Wed, 10 Aug 2022 UTC via an FALCON 9 launch vehicle from the Air Force Eastern Test Range (AFETR). Payload-class satellites include a variety of spacecraft equipped with specific instruments for various scientific and technological missions. These include communications satellites like Starlink; space stations such as the ISS; scientific satellites like the Hubble; Earth observation satellites from companies like Planet Labs, Umbra, and HawkEye 360; GPS; miniature CubeSats for education and research; and military/defense satellites.

Not visible in the next 10 days
Identifier
53427, 2022-097AR
Orbit
Decayed
Country
Flag of USUS
Related business
Manufacturer
SpaceX/Seattle
Mission
Decayed Commercial Communications
Bus & Motor
STARLINK, Unknown motor
Mass
297 kg wet, ~275 kg dry
Launch date (UTC)
2022-08-10 (4 years ago)
Launch vehicle
FALCON 9
Launch site
Air Force Eastern Test Range (AFETR)
Object type
Payload
Rocket body
Debris
Shape & HBR
Box + 1 Pan, 10.1 m
Radar Cross Section
13.562 m², Large (>1 m²)

Expand to show TLE details & history
Last TLE update: 1 year ago

TLE from 1 year ago
0 STARLINK-4541
1 53427U 22097AR  25072.77417485  .17672544  12146-4  31713-2 0  9991
2 53427  53.2071 259.1095 0008326 280.8711 182.8009 16.31694957144174
Epoch: 2025-03-13T18:34Z
TLE epoch observation values (Epoch: 2025-03-13T18:34:48.707Z)
Latitude
51.24566°
Longitude
-79.11493°
Altitude
199.513 km
Speed
7.79 km/s
True Right ascension
00h 44m 55s
True Declination
51° 03' 48"
Sunlit
Object was in daylight at epoch
Visualization orbit readout
Latitude
Unknown
Longitude
Unknown
Altitude
Unknown
Speed
Unknown
Apparent Right ascension
Unknown
Apparent Declination
Unknown
Sunlit
N/A
Visualization observer readout
Local Sidereal Time
21:32:01
Azimuth
Unknown
Elevation
Unknown
Doppler factor
Unknown
Orbital elements
Apogee altitude
193.715 km
Perigee altitude
182.781 km
Semi-major axis
6,566.385 km
Eccentricity
0.00083
Inclination
53.2071°
RAAN
259.1095°
Arg. of periapsis
280.8711°
True anomaly
182.79624°
Mean anomaly
182.8009°
Eccentric anomaly
182.79857°
Mean motion
4.079 °/min
Orbital period
88.26 mins
BSTAR
0.0031713
Loading maneuver chart data...
Computing Atmospheric mass density...
Loading historical data...
Loading historical data...
Loading historical data...
Loading historical data...
Loading historical data...
Loading historical data...
Loading historical data...

Documentation

Showing up to 5 results
|